Location: Unspecified
(49.2170°N, 0.0000°E)
Time: 22:46:31
(UTC+00:00)

Transit 2A - Pass Details

Date: 22 June 2019
Orbit: 594 x 964 km, 66.7° (Epoch: 19 July)

Event Time Altitude Azimuth Distance (km) Brightness Sun altitude
Rises 22:10:28 0° 145° (SE) 3,627 - -13.2°
Exits shadow 22:15:02 - 114° (ESE) 2,776 8.4 -13.5°
Reaches altitude 10° 22:16:17 10° 103° (ESE) 2,700 8.5 -13.6°
Maximum altitude 22:16:45 10° 99° (E) 2,694 8.5 -13.7°
Drops below altitude 10° 22:17:13 10° 94° (E) 2,699 8.5 -13.7°
Sets 22:22:59 0° 53° (NE) 3,612 9.7 -14.1°
